STARLINK-11368, 61583

Orbit data source: Space-Track

STARLINK-11368, 61583 is a payload satellite owned by SpaceX/Seattle (US) in LEO that was launched on Fri, 18 Oct 2024 UTC via an FALCON 9 launch vehicle from the Air Force Eastern Test Range (AFETR). Payload-class satellites include a variety of spacecraft equipped with specific instruments for various scientific and technological missions. These include communications satellites like Starlink; space stations such as the ISS; scientific satellites like the Hubble; Earth observation satellites from companies like Planet Labs, Umbra, and HawkEye 360; GPS; miniature CubeSats for education and research; and military/defense satellites.

Loading next visibility...
Identifier
61583, 2024-187K
Orbit
LEO
Country
Flag of USUS
Related business
Manufacturer
SpaceX/Seattle
Mission
Operational Commercial Communications
Bus & Motor
STARLINK V2MD, Unknown motor
Mass
960 kg wet, ~910 kg dry
Launch date (UTC)
2024-10-18 (2 years ago)
Launch vehicle
FALCON 9
Launch site
Air Force Eastern Test Range (AFETR)
Object type
Payload
Rocket body
Debris
Shape & HBR
Box + 2 Pan, 18.1 m
Radar Cross Section
36.964 m², Large (>1 m²)

Expand to show TLE details & history
Last TLE update: 15 hours ago

TLE from 15 hours ago
0 STARLINK-11368
1 61583U 24187K   26171.24015060 -.00000611  00000-0 -18977-6 0  9998
2 61583  53.1599 150.9637 0001100  98.6305 261.4838 15.69699442 96801
Epoch: 2026-06-20T05:45Z
TLE epoch observation values (Epoch: 2026-06-20T05:45:49.011Z)
Latitude
-0.00001°
Longitude
156.05187°
Altitude
360.782 km
Speed
7.694 km/s
True Right ascension
10h 03m 51s
True Declination
0° 00' 00"
Sunlit
Object was in daylight at epoch
Visualization orbit readout
Latitude
Unknown
Longitude
Unknown
Altitude
Unknown
Speed
Unknown
Apparent Right ascension
Unknown
Apparent Declination
Unknown
Sunlit
N/A
Visualization observer readout
Local Sidereal Time
07:16:24
Azimuth
Unknown
Elevation
Unknown
Doppler factor
Unknown
Orbital elements
Apogee altitude
360.759 km
Perigee altitude
359.276 km
Semi-major axis
6,738.155 km
Eccentricity
0.00011
Inclination
53.1599°
RAAN
150.9637°
Arg. of periapsis
98.6305°
True anomaly
261.47133°
Mean anomaly
261.4838°
Eccentric anomaly
261.47757°
Mean motion
3.92402 °/min
Orbital period
91.74 mins
BSTAR
-1.8977e-7
Loading maneuver chart data...
Computing Atmospheric mass density...
Loading historical data...
Loading historical data...
Loading historical data...
Loading historical data...
Loading historical data...
Loading historical data...
Loading historical data...

Documentation

Showing up to 5 results
|